Date String (YYYY-MM-DD hh:mm:ss) UTC,Instrument flags,Ambient pressure (hPa),Sample flow (lpm),Bypass flow (lpm),Sample temperature (°C),Ambient temperature (°C),ASC tube jacket temperature (°C),LED temperature (°C),Box temperature (°C),Sample RH (%),Span deviation,Mass concentration (μg/m³),Mass concentration (μg/m³),Mass concentration (μg/m³)
DateTimeUTC,F1_M11,P_M11,Q1_M11,Q2_M11,T1_M11,T2_M11,T3_M11,T4_M11,T5_M11,U1_M11,ZSPAN_M11,X0_M11,X2_M11,X1_M11
2022-11-30 06:00:00,,0824.3,5.01,0.00,22.3,21.5,00.0,31.1,24.1,08.6,0000.0,0012.30,0007.95,0007.31
2022-11-30 06:01:00,,0824.4,5.01,0.00,22.3,21.2,00.0,31.2,24.0,08.6,0000.0,0012.92,0008.01,0007.33
2022-11-30 06:02:00,,0824.4,4.99,0.00,22.2,21.0,00.0,31.2,23.9,08.5,0000.0,0013.49,0008.02,0007.34
2022-11-30 06:03:00,,0824.3,5.00,0.00,22.2,20.7,00.0,31.2,23.8,08.5,0000.0,0013.49,0008.01,0007.33
2022-11-30 06:04:00,,0824.2,5.01,0.00,22.1,20.4,00.0,31.1,23.8,08.6,0000.0,0013.76,0008.01,0007.32
2022-11-30 06:05:00,,0824.3,5.00,0.00,22.1,20.6,00.0,31.1,23.8,08.7,0000.0,0013.92,0008.00,0007.29
2022-11-30 06:06:00,,0824.4,5.00,0.00,22.2,21.6,00.0,31.1,24.0,08.6,0000.0,0013.81,0007.89,0007.21
2022-11-30 06:07:00,,0824.5,5.01,0.00,22.3,22.3,00.0,31.1,24.2,08.6,0000.0,0014.07,0007.79,0007.13
2022-11-30 06:08:00,,0824.8,4.99,0.00,22.3,22.0,00.0,31.1,24.2,08.5,0000.0,0014.23,0007.67,0007.02
2022-11-30 06:09:00,,0824.7,5.01,0.00,22.3,21.6,00.0,31.1,24.2,08.5,0000.0,0014.30,0007.60,0006.96
2022-11-30 06:10:00,,0824.8,5.01,0.00,22.3,21.2,00.0,31.2,24.0,08.5,0000.0,0013.77,0007.58,0006.96
2022-11-30 06:11:00,,0824.5,5.00,0.00,22.2,20.9,00.0,31.2,24.0,08.5,0000.0,0013.69,0007.53,0006.93
2022-11-30 06:12:00,,0824.4,5.00,0.00,22.2,20.8,00.0,31.2,23.9,08.5,0000.0,0013.05,0007.44,0006.87
2022-11-30 06:13:00,,0824.5,5.00,0.00,22.2,20.6,00.0,31.1,23.9,08.6,0000.0,0012.75,0007.36,0006.80
2022-11-30 06:14:00,,0824.4,4.99,0.00,22.1,20.5,00.0,31.1,23.8,08.6,0000.0,0012.84,0007.31,0006.77
2022-11-30 06:15:00,,0824.4,5.02,0.00,22.1,20.5,00.0,31.1,23.8,08.6,0000.0,0012.17,0007.24,0006.74
2022-11-30 06:16:00,,0824.5,5.00,0.00,22.1,21.4,00.0,31.0,24.0,08.7,0000.0,0012.06,0007.24,0006.76
2022-11-30 06:17:00,,0824.4,5.00,0.00,22.2,22.2,00.0,31.0,24.1,08.5,0000.0,0012.27,0007.33,0006.82
2022-11-30 06:18:00,,0824.4,4.99,0.00,22.3,22.0,00.0,31.1,24.2,08.5,0000.0,0012.17,0007.43,0006.90
2022-11-30 06:19:00,,0824.4,5.01,0.00,22.3,21.5,00.0,31.1,24.1,08.5,0000.0,0012.07,0007.52,0006.98
2022-11-30 06:20:00,,0824.3,5.01,0.00,22.2,21.2,00.0,31.1,24.0,08.6,0000.0,0011.90,0007.51,0006.97
2022-11-30 06:21:00,,0824.2,5.00,0.00,22.2,20.9,00.0,31.1,23.9,08.6,0000.0,0012.10,0007.40,0006.88
2022-11-30 06:22:00,,0824.1,5.00,0.00,22.2,20.8,00.0,31.1,23.9,08.7,0000.0,0012.53,0007.33,0006.83
2022-11-30 06:23:00,,0824.4,5.01,0.00,22.1,20.6,00.0,31.1,23.8,08.8,0000.0,0012.59,0007.31,0006.81
2022-11-30 06:24:00,,0824.3,5.01,0.00,22.1,20.5,00.0,31.1,23.8,08.7,0000.0,0012.15,0007.27,0006.79
2022-11-30 06:25:00,,0824.4,4.99,0.00,22.1,21.0,00.0,31.1,23.9,08.7,0000.0,0012.05,0007.28,0006.78
2022-11-30 06:26:00,,0824.4,5.01,0.00,22.2,21.9,00.0,31.0,24.1,08.7,0000.0,0012.33,0007.22,0006.74
2022-11-30 06:27:00,,0824.3,4.98,0.00,22.3,22.3,00.0,31.0,24.2,08.6,0000.0,0012.25,0007.17,0006.71
2022-11-30 06:28:00,,0824.3,5.02,0.00,22.3,21.9,00.0,31.1,24.2,08.6,0000.0,0012.37,0007.09,0006.66
2022-11-30 06:29:00,,0824.3,4.98,0.00,22.3,21.6,00.0,31.1,24.1,08.6,0000.0,0012.37,0006.99,0006.57
2022-11-30 06:30:00,,0824.4,5.00,0.00,22.2,21.3,00.0,31.1,24.0,08.6,0000.0,0012.30,0006.94,0006.52
2022-11-30 06:31:00,,0824.3,5.00,0.00,22.2,21.0,00.0,31.1,24.0,08.6,0000.0,0012.56,0006.97,0006.52
2022-11-30 06:32:00,,0824.3,5.01,0.00,22.2,20.8,00.0,31.1,23.9,08.6,0000.0,0012.55,0007.05,0006.56
2022-11-30 06:33:00,,0824.3,5.00,0.00,22.2,20.7,00.0,31.1,23.9,08.6,0000.0,0012.58,0007.09,0006.57
2022-11-30 06:34:00,,0824.3,4.99,0.00,22.1,20.7,00.0,31.1,23.8,08.7,0000.0,0013.47,0007.09,0006.56
2022-11-30 06:35:00,,0824.4,5.00,0.00,22.2,21.4,00.0,31.1,24.0,08.7,0000.0,0013.57,0007.12,0006.54
2022-11-30 06:36:00,,0824.4,4.99,0.00,22.3,22.3,00.0,31.0,24.2,08.6,0000.0,0013.74,0007.06,0006.47
2022-11-30 06:37:00,,0824.5,5.00,0.00,22.3,22.2,00.0,31.1,24.3,08.6,0000.0,0013.89,0007.11,0006.45
2022-11-30 06:38:00,,0824.4,5.01,0.00,22.3,21.8,00.0,31.1,24.2,08.5,0000.0,0015.05,0007.17,0006.45
2022-11-30 06:39:00,,0824.4,5.00,0.00,22.3,21.4,00.0,31.2,24.1,08.4,0000.0,0016.00,0007.28,0006.47
2022-11-30 06:40:00,,0824.3,5.00,0.00,22.3,21.2,00.0,31.2,24.0,08.4,0000.0,0016.30,0007.39,0006.54
2022-11-30 06:41:00,,0824.4,5.00,0.00,22.2,21.0,00.0,31.2,24.0,08.4,0000.0,0016.97,0007.49,0006.60
2022-11-30 06:42:00,,0824.4,5.00,0.00,22.2,20.9,00.0,31.2,23.9,08.4,0000.0,0017.44,0007.49,0006.62
2022-11-30 06:43:00,,0824.4,5.00,0.00,22.2,20.7,00.0,31.2,23.9,08.4,0000.0,0017.66,0007.49,0006.61
2022-11-30 06:44:00,,0824.5,4.99,0.00,22.2,20.6,00.0,31.1,23.9,08.4,0000.0,0018.07,0007.50,0006.59
2022-11-30 06:45:00,,0824.5,5.01,0.00,22.2,21.3,00.0,31.1,24.0,08.3,0000.0,0016.77,0007.50,0006.61
2022-11-30 06:46:00,,0824.4,5.00,0.00,22.3,22.2,00.0,31.1,24.2,08.2,0000.0,0016.85,0007.52,0006.63
2022-11-30 06:47:00,,0824.4,5.00,0.00,22.4,22.2,00.0,31.1,24.3,08.2,0000.0,0017.16,0007.59,0006.68
2022-11-30 06:48:00,,0824.7,4.99,0.00,22.4,21.9,00.0,31.1,24.2,08.2,0000.0,0016.97,0007.61,0006.72
2022-11-30 06:49:00,,0824.7,5.00,0.00,22.3,21.5,00.0,31.2,24.1,08.2,0000.0,0017.04,0007.56,0006.72
2022-11-30 06:50:00,,0824.8,4.99,0.00,22.3,21.3,00.0,31.2,24.1,08.3,0000.0,0016.02,0007.50,0006.71
2022-11-30 06:51:00,,0824.6,4.99,0.00,22.3,21.0,00.0,31.2,24.0,08.3,0000.0,0015.51,0007.45,0006.68
2022-11-30 06:52:00,,0824.7,4.99,0.00,22.3,20.8,00.0,31.2,24.0,08.3,0000.0,0015.36,0007.39,0006.64
2022-11-30 06:53:00,,0824.4,5.00,0.00,22.2,20.6,00.0,31.2,23.9,08.3,0000.0,0015.18,0007.38,0006.63
2022-11-30 06:54:00,,0824.5,5.02,0.00,22.2,20.5,00.0,31.2,23.9,08.3,0000.0,0014.90,0007.34,0006.61
2022-11-30 06:55:00,,0824.4,5.00,0.00,22.2,21.0,00.0,31.1,24.0,08.2,0000.0,0014.50,0007.27,0006.59
2022-11-30 06:56:00,,0824.5,4.99,0.00,22.3,22.0,00.0,31.1,24.2,08.2,0000.0,0014.75,0007.22,0006.57
2022-11-30 06:57:00,,0824.5,5.00,0.00,22.4,22.2,00.0,31.1,24.3,08.2,0000.0,0015.25,0007.20,0006.56
2022-11-30 06:58:00,,0824.4,5.00,0.00,22.4,21.9,00.0,31.2,24.2,08.2,0000.0,0014.83,0007.16,0006.54
2022-11-30 06:59:00,,0824.4,4.99,0.00,22.3,21.5,00.0,31.2,24.1,08.2,0000.0,0015.09,0007.12,0006.52
